Location: Ambrosina
(19.9365°S, 43.9833°W)
Time: 01:15:31
(UTC+00:00)

Cosmos 468 Rocket - Pass Details

Date: 11 May 2021
Orbit: 744 x 780 km, 74.0° (Epoch: 20 June)

Event Time Altitude Azimuth Distance (km) Brightness Sun altitude
Rises 22:13:42 0° 351° (N) 3,224 7.5 -24.6°
Reaches altitude 10° 22:16:03 10° 353° (N) 2,309 6.7 -25.2°
Enters shadow 22:20:42 66° 29° (NNE) 846 4.0 -26.2°
